| time (UTC) | temp F | wind direction | speed knots | gust knots | rain 1hr in | rain 24hr in | rain mn in | humidity % | barometer mb |
| 20260831150107 | 54 | 273 | 0.0 | 0.9 | 0.00 | 0.00 | 0.00 | ||
| 20260831143047 | 52 | 273 | 0.0 | 0.0 | 0.00 | 0.00 | 0.00 | ||
| 20260831140055 | 52 | 273 | 0.0 | 0.0 | 0.00 | 0.00 | 0.00 | ||
| 20260831133035 | 52 | 273 | 0.0 | 0.0 | 0.00 | 0.00 | 0.00 | ||
| 20260831130104 | 52 | 273 | 0.0 | 0.0 | 0.00 | 0.00 | 0.00 | ||
| 20260831123042 | 52 | 273 | 0.0 | 0.9 | 0.00 | 0.00 | 0.00 | ||
| 20260831113037 | 53 | 273 | 0.0 | 0.0 | 0.00 | 0.00 | 0.00 | ||
| 20260831110105 | 53 | 273 | 0.0 | 0.0 | 0.00 | 0.00 | 0.00 | ||
| 20260831103041 | 54 | 273 | 0.0 | 0.9 | 0.00 | 0.00 | 0.00 | ||
| 20260831100052 | 54 | 273 | 0.0 | 0.0 | 0.00 | 0.00 | 0.00 | ||
| 20260831083045 | 55 | 273 | 0.0 | 0.0 | 0.00 | 0.00 | 0.00 | ||
| 20260831080051 | 56 | 273 | 0.0 | 0.0 | 0.00 | 0.00 | 0.00 | ||
| 20260831073036 | 56 | 273 | 0.0 | 0.0 | 0.00 | 0.00 | 0.00 | ||
| 20260831070105 | 57 | 273 | 0.0 | 0.0 | 0.00 | 0.00 | 0.00 | ||
| 20260831063044 | 57 | 273 | 0.0 | 0.0 | 0.00 | 0.00 | 0.00 | ||
| 20260831060050 | 58 | 273 | 0.0 | 0.0 | 0.00 | 0.00 | 0.00 | ||
| 20260831053029 | 58 | 273 | 0.0 | 0.0 | 0.00 | 0.00 | 0.00 | ||
| 20260831050053 | 59 | 218 | 0.0 | 0.9 | 0.00 | 0.00 | 0.00 | ||
| 20260831043052 | 59 | 218 | 0.0 | 0.0 | 0.00 | 0.00 | 0.00 | ||
| 20260831033041 | 61 | 239 | 0.0 | 0.9 | 0.00 | 0.00 | 0.00 | ||
| 20260831030052 | 62 | 225 | 0.0 | 0.9 | 0.00 | 0.00 | 0.00 | ||
| 20260831023033 | 64 | 255 | 0.0 | 1.7 | 0.00 | 0.00 | 0.00 | ||
| 20260831020105 | 65 | 230 | 0.0 | 1.7 | 0.00 | 0.00 | 0.00 | ||
| 20260831013046 | 66 | 235 | 0.0 | 2.6 | 0.00 | 0.00 | 0.00 | ||
| 20260831010055 | 67 | 209 | 0.9 | 3.5 | 0.00 | 0.00 | 0.00 | ||
| 20260831000104 | 69 | 116 | 0.0 | 6.1 | 0.00 | 0.00 | 0.00 | ||
| 20260830233044 | 71 | 215 | 1.7 | 3.5 | 0.00 | 0.00 | 0.00 | ||
| 20260830223035 | 71 | 314 | 2.6 | 7.8 | 0.00 | 0.00 | 0.00 | ||
| 20260830220108 | 72 | 225 | 1.7 | 7.0 | 0.00 | 0.00 | 0.00 | ||
| 20260830213049 | 71 | 268 | 2.6 | 7.8 | 0.00 | 0.00 | 0.00 | ||
| 20260830203042 | 69 | 253 | 2.6 | 7.8 | 0.00 | 0.00 | 0.00 | ||
| 20260830200050 | 67 | 176 | 0.9 | 4.3 | 0.00 | 0.00 | 0.00 | ||
| 20260830193031 | 67 | 233 | 0.9 | 5.2 | 0.00 | 0.00 | 0.00 | ||
| 20260830190105 | 65 | 207 | 1.7 | 4.3 | 0.00 | 0.00 | 0.00 | ||
| 20260830183047 | 65 | 196 | 0.0 | 3.5 | 0.00 | 0.00 | 0.00 | ||
| 20260830180058 | 65 | 256 | 0.0 | 3.5 | 0.00 | 0.00 | 0.00 | ||
| 20260830163037 | 60 | 56 | 0.0 | 0.9 | 0.00 | 0.00 | 0.00 | ||
| 20260830153024 | 58 | 80 | 0.0 | 0.9 | 0.00 | 0.00 | 0.00 |